Tracking 19908 objects as of 19-Oct-2019
HD Live streaming from Space Station
objects crossing your sky now

SL-12 R/B(2)

Track SL-12 R/B(2) now!


NORAD ID: 19094
Int'l Code: 1988-036E
Perigee: 35,472.4 km
Apogee: 35,646.6 km
Inclination: 13.6 °
Period: 1,424.1 minutes
Semi major axis: 41930 km
RCS: 2.2903 m2 (large)
Launch date: May 6, 1988
Source: Commonwealth of Independent States (former USSR) (CIS)
Launch site: TYURATAM MISSILE AND SPACE COMPLEX (TTMTR)

Note: This is a ROCKET BODY
aabbcc
Your satellite tracking list
Your tracking list is empty




NASA's NSSDC Master Catalog

Two Line Element Set (TLE):
1 19094U 88036E   19291.58689682 -.00000217 +00000-0 +00000-0 0  9993
2 19094 013.6291 342.6312 0020773 115.6716 268.9027 01.01113281097226
Source of the keplerian elements: AFSPC